Location: Oulou
(10.7667°N, 12.5167°W)
Time: 05:53:17
(UTC+00:00)

Cosmos 2333 Rocket - Pass Details

Date: 20 September 2019
Orbit: 840 x 862 km, 70.8° (Epoch: 17 October)

Event Time Altitude Azimuth Distance (km) Brightness Sun altitude
Rises 20:59:28 0° 333° (NNW) 3,416 5.8 -33.1°
Reaches altitude 10° 21:02:00 10° 328° (NNW) 2,483 5.0 -33.7°
Enters shadow 21:06:42 44° 278° (W) 1,168 3.2 -34.9°
